Location: Acequia del Cap
(41.7000°N, 0.6167°E)
Time: 17:03:52
(UTC+00:00)

NOSS 2-3 (C) - Pass Details

Date: 07 August 2020
Orbit: 572 x 1639 km, 63.4° (Epoch: 22 September)

Event Time Altitude Azimuth Distance (km) Brightness Sun altitude
Exits shadow 03:01:12 33° 178° (S) 1,011 4.3 -18.9°
Maximum altitude 03:02:48 53° 119° (ESE) 753 4.0 -18.7°
Drops below altitude 10° 03:07:23 10° 43° (NE) 2,144 7.6 -18.1°
Sets 03:09:59 0° 39° (NE) 3,198 8.9 -17.8°
